Weather History for Evergreen, AL

Change the Weather History Date:

Tuesday, January 15, 2013

  Actual Average (KPRN) Record (KPRN)
Temperature  
Mean Temperature 62 °F -  
Max Temperature 75 °F 57 °F 76 °F (1950)
Min Temperature 48 °F 35 °F 16 °F (1948)
Degree Days  
Heating Degree Days 4    
Growing Degree Days 12 (Base 50)    
Moisture  
Dew Point 57 °F    
Average Humidity 90    
Maximum Humidity 97    
Minimum Humidity 71    
Precipitation  
Precipitation 0.43 in - - ()
Sea Level Pressure  
Sea Level Pressure 30.02 in    
Wind  
Wind Speed 3 mph (SW)    
Max Wind Speed 14 mph    
Max Gust Speed 20 mph    
Visibility 5 miles    
Events Fog , Rain    
Averages and records for this station are not official NWS values.
T = Trace of Precipitation, MM = Missing Value Source: NWS Daily Summary

Daily Weather History Graph

Daily Weather History Graph

Search for Another Location

Airport:

Trip Planner

Search our weather history database for the weather conditions in past years. The results will help you decide how hot, cold, wet, or windy it might be!

Date:

Astronomy

Jan. 15, 2013 Rise Set
Actual Time 6:47 AM CST 5:08 PM CST
Civil Twilight 6:21 AM CST 5:34 PM CST
Nautical Twilight 5:51 AM CST 6:04 PM CST
Astronomical Twilight 5:22 AM CST 6:33 PM CST
Moon 9:12 AM CST (1/15) 9:35 PM CST (1/15)
Length of Visible Light 11h 12m
Length of Day
10h 20m
Waxing Crescent, 19% of the Moon is Illuminated
Jan 15
Waxing Crescent
Jan 18
First Quarter
Jan 26
Full
Feb 3
Last Quarter
Feb 10
New

Hourly Weather History & Observations

Time (CST) Temp. Dew Point Humidity Pressure Visibility Wind Dir Wind Speed Gust Speed Precip Events Conditions
12:53 AM 48.9 °F 46.9 °F 93% 30.09 in 10.0 mi Calm Calm - 0.00 in   Overcast
1:43 AM 48.2 °F 46.4 °F 93% 30.08 in 2.0 mi Calm Calm - N/A   Overcast
1:53 AM 48.9 °F 46.9 °F 93% 30.07 in 1.8 mi Calm Calm - N/A   Overcast
2:53 AM 48.9 °F 46.9 °F 93% 30.06 in 2.0 mi North 4.6 mph - 0.00 in   Overcast
3:21 AM 48.2 °F 46.4 °F 93% 30.06 in 3.0 mi North 3.5 mph - N/A   Overcast
3:35 AM 48.2 °F 46.4 °F 93% 30.06 in 2.0 mi North 3.5 mph - N/A   Overcast
3:53 AM 50.0 °F 48.0 °F 93% 30.06 in 2.0 mi NNW 3.5 mph - N/A   Overcast
4:04 AM 50.0 °F 48.2 °F 94% 30.06 in 1.8 mi Calm Calm - N/A   Overcast
4:31 AM 50.0 °F 48.2 °F 94% 30.07 in 2.5 mi Variable 3.5 mph - 0.01 in   Overcast
4:53 AM 48.9 °F 46.9 °F 93% 30.06 in 2.5 mi Calm Calm - 0.01 in Rain Light Rain
5:53 AM 48.9 °F 46.9 °F 93% 30.06 in 2.0 mi North 5.8 mph - 0.00 in   Overcast
6:02 AM 48.2 °F 46.4 °F 93% 30.07 in 1.5 mi NNW 6.9 mph - 0.01 in Rain Rain
6:10 AM 48.2 °F 46.4 °F 93% 30.08 in 3.0 mi Variable 4.6 mph - 0.02 in Rain Light Rain
6:53 AM 48.9 °F 46.9 °F 93% 30.08 in 6.0 mi North 3.5 mph - 0.03 in Rain Light Rain
7:53 AM 50.0 °F 48.0 °F 93% 30.08 in 4.0 mi Calm Calm - 0.00 in   Overcast
8:09 AM 50.0 °F 48.2 °F 94% 30.08 in 1.8 mi Calm Calm - N/A   Overcast
8:31 AM 51.8 °F 48.2 °F 88% 30.09 in 0.8 mi Calm Calm - N/A   Overcast
8:53 AM 51.1 °F 48.9 °F 92% 30.09 in 0.5 mi NW 4.6 mph - 0.00 in Fog , Rain Light Rain
9:53 AM 52.0 °F 51.1 °F 97% 30.08 in 0.8 mi Calm Calm - 0.00 in   Overcast
10:53 AM 54.0 °F 52.0 °F 93% 30.05 in 0.8 mi Calm Calm - N/A   Mist
11:28 AM 55.4 °F 53.6 °F 94% 30.04 in 1.0 mi Calm Calm - N/A   Overcast
11:53 AM 57.0 °F 55.9 °F 96% 30.02 in 0.8 mi Calm Calm - N/A   Overcast
12:08 PM 59.0 °F 57.2 °F 94% 30.02 in 1.8 mi Calm Calm - N/A   Overcast
12:31 PM 60.8 °F 59.0 °F 94% 30.01 in 5.0 mi Calm Calm - N/A   Overcast
12:53 PM 64.9 °F 62.1 °F 90% 30.00 in 10.0 mi Calm Calm - N/A   Overcast
1:11 PM 69.8 °F 64.4 °F 83% 29.98 in 10.0 mi SSE 3.5 mph - N/A   Mostly Cloudy
1:20 PM 71.6 °F 64.4 °F 78% 29.98 in 10.0 mi Calm Calm - N/A   Mostly Cloudy
1:53 PM 75.0 °F 66.9 °F 76% 29.97 in 10.0 mi SW 10.4 mph - N/A   Mostly Cloudy
2:46 PM 75.2 °F 66.2 °F 73% 29.97 in 10.0 mi South 13.8 mph - N/A   Scattered Clouds
2:53 PM 75.9 °F 66.0 °F 71% 29.97 in 10.0 mi SSW 11.5 mph 19.6 mph N/A   Partly Cloudy
3:53 PM 75.0 °F 66.9 °F 76% 29.98 in 10.0 mi South 8.1 mph - N/A   Mostly Cloudy
4:53 PM 68.0 °F 63.0 °F 84% 29.99 in 8.0 mi NNW 4.6 mph - N/A   Overcast
5:02 PM 66.2 °F 62.6 °F 88% 30.00 in 7.0 mi NNW 4.6 mph - N/A   Overcast
5:53 PM 64.9 °F 62.1 °F 90% 29.99 in 8.0 mi Calm Calm - N/A   Mostly Cloudy
6:13 PM 64.4 °F 62.6 °F 94% 29.99 in 7.0 mi Calm Calm - N/A   Overcast
6:31 PM 64.4 °F 60.8 °F 88% 29.99 in 7.0 mi Calm Calm - N/A   Overcast
6:42 PM 64.4 °F 60.8 °F 88% 30.00 in 7.0 mi Calm Calm - N/A   Overcast
6:53 PM 64.0 °F 61.0 °F 90% 29.99 in 7.0 mi Calm Calm - N/A   Overcast
7:26 PM 64.4 °F 60.8 °F 88% 29.98 in 7.0 mi Calm Calm - N/A   Overcast
7:53 PM 64.0 °F 61.0 °F 90% 29.97 in 7.0 mi Calm Calm - N/A   Overcast
8:39 PM 64.4 °F 62.6 °F 94% 29.97 in 2.5 mi South 4.6 mph - 0.09 in Rain Light Rain
8:46 PM 66.2 °F 64.4 °F 94% 29.96 in 1.0 mi South 4.6 mph - 0.16 in Rain Heavy Rain
8:53 PM 66.9 °F 64.9 °F 93% 29.96 in 2.0 mi SSW 4.6 mph - 0.18 in Rain Heavy Rain
9:05 PM 69.8 °F 66.2 °F 88% 29.97 in 4.0 mi SSW 6.9 mph - 0.01 in Rain Light Rain
9:16 PM 69.8 °F 66.2 °F 88% 29.96 in 2.0 mi South 6.9 mph - 0.06 in Rain Heavy Rain
9:22 PM 69.8 °F 66.2 °F 88% 29.96 in 3.0 mi SW 10.4 mph - 0.06 in Rain Rain
9:48 PM 69.8 °F 66.2 °F 88% 29.97 in 2.5 mi SSW 10.4 mph - 0.12 in Rain Rain
9:53 PM 69.1 °F 66.9 °F 93% 29.96 in 4.0 mi SW 8.1 mph - 0.12 in Rain Light Rain
10:53 PM 68.0 °F 66.0 °F 93% 29.95 in 5.0 mi South 5.8 mph - 0.09 in Rain Light Rain
11:23 PM 68.0 °F 66.2 °F 94% 29.95 in 3.0 mi South 8.1 mph - 0.09 in Rain Rain
11:31 PM 68.0 °F 66.2 °F 94% 29.95 in 9.0 mi South 6.9 mph - 0.09 in Rain Light Rain
11:41 PM 69.8 °F 66.2 °F 88% 29.95 in 10.0 mi South 9.2 mph - 0.09 in Rain Light Rain